timestamp,surface_pressure_avg,surface_temp_avg,battery_voltage,lat,long
2019-10-31 00:00:00+00:00,328.158,8.4,12.89,47.84626,-54.09684
2019-10-31 00:10:00+00:00,329.6545,8.55,12.81,47.84626,-54.09684
2019-10-31 00:20:00+00:00,335.9529,8.6,12.89,47.84626,-54.09684
2019-10-31 00:30:00+00:00,342.6646,8.67,12.89,47.84626,-54.09684
2019-10-31 00:40:00+00:00,341.713,8.7,12.97,47.84626,-54.09684
2019-10-31 00:50:00+00:00,339.0946,8.77,12.97,47.84626,-54.09684
2019-10-31 01:00:00+00:00,340.8312,8.8,12.89,47.84626,-54.09684
2019-10-31 01:10:00+00:00,343.5362,8.8,12.81,47.84626,-54.09684
2019-10-31 01:20:00+00:00,343.2112,8.8,12.89,47.84626,-54.09684
2019-10-31 01:30:00+00:00,344.6396,8.8,12.89,47.84626,-54.09684
2019-10-31 01:40:00+00:00,349.3495,8.8,12.89,47.84626,-54.09684
2019-10-31 01:50:00+00:00,350.1146,8.8,12.97,47.84626,-54.09684
2019-10-31 02:00:00+00:00,349.7246,8.8,12.81,47.84626,-54.09684
2019-10-31 02:10:00+00:00,347.1896,8.8,12.81,47.84626,-54.09684
2019-10-31 02:20:00+00:00,343.2964,8.8,12.89,47.84626,-54.09684
2019-10-31 02:30:00+00:00,336.1813,8.8,12.89,47.84626,-54.09684
2019-10-31 02:40:00+00:00,334.8296,8.8,12.89,47.84626,-54.09684
2019-10-31 02:50:00+00:00,331.813,8.8,12.89,47.84626,-54.09684
2019-10-31 03:00:00+00:00,325.768,8.8,12.81,47.84626,-54.09684
2019-10-31 03:10:00+00:00,322.1481,8.82,12.73,47.84626,-54.09684
2019-10-31 03:20:00+00:00,320.478,8.82,12.89,47.84626,-54.09684
2019-10-31 03:30:00+00:00,309.653,8.82,12.89,47.84626,-54.09684
2019-10-31 03:40:00+00:00,299.9747,8.84,12.89,47.84626,-54.09684
2019-10-31 03:50:00+00:00,294.188,8.86,12.89,47.84626,-54.09684
2019-10-31 04:00:00+00:00,285.3981,8.83,12.81,47.84626,-54.09684
2019-10-31 04:10:00+00:00,270.403,8.82,12.73,47.84626,-54.09684
2019-10-31 04:20:00+00:00,261.2665,8.83,12.81,47.84626,-54.09684
2019-10-31 04:30:00+00:00,253.8414,8.82,12.89,47.84626,-54.09684
2019-10-31 04:40:00+00:00,242.5364,8.8,12.89,47.84626,-54.09684
2019-10-31 04:50:00+00:00,231.3781,8.81,12.89,47.84626,-54.09684
2019-10-31 05:00:00+00:00,224.5698,8.81,12.81,47.84626,-54.09684
2019-10-31 05:10:00+00:00,216.1298,8.8,12.73,47.84626,-54.09684
2019-10-31 05:20:00+00:00,206.8948,8.8,12.81,47.84626,-54.09684
2019-10-31 05:30:00+00:00,201.1465,8.81,12.81,47.84626,-54.09684
2019-10-31 05:40:00+00:00,197.9914,8.8,12.89,47.84626,-54.09684
2019-10-31 05:50:00+00:00,191.9565,8.81,12.89,47.84626,-54.09684
2019-10-31 06:00:00+00:00,183.5098,8.81,12.81,47.84626,-54.09684
2019-10-31 06:10:00+00:00,177.5265,8.81,12.73,47.84626,-54.09684
2019-10-31 06:20:00+00:00,174.6765,8.82,12.81,47.84626,-54.09684
2019-10-31 06:30:00+00:00,172.1765,8.81,12.81,47.84626,-54.09684
2019-10-31 06:40:00+00:00,165.8798,8.8,12.81,47.84626,-54.09684
2019-10-31 06:50:00+00:00,164.2831,8.8,12.89,47.84626,-54.09684
2019-10-31 07:00:00+00:00,163.1165,8.8,12.81,47.84626,-54.09684
2019-10-31 07:10:00+00:00,159.0615,8.8,12.73,47.84626,-54.09684
2019-10-31 07:20:00+00:00,158.2565,8.8,12.81,47.84626,-54.09684
2019-10-31 07:30:00+00:00,163.0998,8.8,12.81,47.84626,-54.09684
2019-10-31 07:40:00+00:00,165.7482,8.8,12.81,47.84626,-54.09684
2019-10-31 07:50:00+00:00,166.1982,8.8,12.81,47.84626,-54.09684
2019-10-31 08:00:00+00:00,174.6098,8.8,12.73,47.84626,-54.09684
2019-10-31 08:10:00+00:00,181.8548,8.8,12.73,47.84626,-54.09684
2019-10-31 08:20:00+00:00,185.4732,8.8,12.81,47.84626,-54.09684
2019-10-31 08:30:00+00:00,194.8181,8.8,12.81,47.84626,-54.09684
2019-10-31 08:40:00+00:00,204.0297,8.8,12.81,47.84626,-54.09684
2019-10-31 08:50:00+00:00,211.2431,8.8,12.81,47.84626,-54.09684
2019-10-31 09:00:00+00:00,215.7097,8.8,12.73,47.84626,-54.09684
2019-10-31 09:10:00+00:00,216.2248,8.8,12.73,47.84626,-54.09684
2019-10-31 09:20:00+00:00,224.4331,8.79,12.81,47.84626,-54.09684
2019-10-31 09:30:00+00:00,235.4314,8.79,12.81,47.84626,-54.09684
2019-10-31 09:40:00+00:00,239.5413,8.79,12.81,47.84626,-54.09684
2019-10-31 09:50:00+00:00,238.7314,8.79,12.81,47.84626,-54.09684
2019-10-31 10:00:00+00:00,243.9247,8.78,12.73,47.84626,-54.09684
2019-10-31 10:10:00+00:00,248.4064,8.77,12.73,47.84626,-54.09684
2019-10-31 10:20:00+00:00,247.5598,8.75,12.81,47.84626,-54.09684
2019-10-31 10:30:00+00:00,244.8347,8.7,12.81,47.84626,-54.09684
2019-10-31 10:40:00+00:00,252.8214,8.7,12.81,47.84626,-54.09684
2019-10-31 10:50:00+00:00,258.8414,8.71,12.97,47.84626,-54.09684
2019-10-31 11:00:00+00:00,264.4547,8.7,13.21,47.84626,-54.09684
2019-10-31 11:10:00+00:00,275.5747,8.7,13.68,47.84626,-54.09684
2019-10-31 11:20:00+00:00,291.4163,8.71,14.08,47.84626,-54.09684
2019-10-31 11:30:00+00:00,299.4896,8.7,14.56,47.84626,-54.09684
2019-10-31 11:40:00+00:00,306.5647,8.7,15.2,47.84626,-54.09684
2019-10-31 11:50:00+00:00,318.243,8.7,15.04,47.84626,-54.09684
2019-10-31 12:00:00+00:00,335.3347,8.7,14.88,47.84626,-54.09684
2019-10-31 12:10:00+00:00,340.913,8.7,14.72,47.84626,-54.09684
2019-10-31 12:20:00+00:00,346.788,8.7,15.44,47.84626,-54.09684
2019-10-31 12:30:00+00:00,358.9313,8.7,15.6,47.84626,-54.09684
2019-10-31 12:40:00+00:00,369.038,8.7,14.8,47.84626,-54.09684
2019-10-31 12:50:00+00:00,369.9514,8.75,14.56,47.84626,-54.09684
2019-10-31 13:00:00+00:00,372.4031,8.8,14.56,47.84626,-54.09684
2019-10-31 13:10:00+00:00,373.723,8.8,14.96,47.84626,-54.09684
2019-10-31 13:20:00+00:00,373.4346,8.8,16.07,47.84626,-54.09684
2019-10-31 13:30:00+00:00,374.8263,8.8,15.2,47.84626,-54.09684
2019-10-31 13:40:00+00:00,376.108,8.8,14.96,47.84626,-54.09684
2019-10-31 13:50:00+00:00,372.2762,8.8,15.04,47.84626,-54.09684
2019-10-31 14:00:00+00:00,370.2346,8.8,14.88,47.84626,-54.09684
2019-10-31 14:10:00+00:00,377.6946,8.8,14.88,47.84626,-54.09684
2019-10-31 14:20:00+00:00,377.2129,8.8,14.96,47.84626,-54.09684
2019-10-31 14:30:00+00:00,365.5379,8.8,14.8,47.84626,-54.09684
2019-10-31 14:40:00+00:00,368.0196,8.8,14.96,47.84626,-54.09684
2019-10-31 14:50:00+00:00,371.9512,8.8,14.88,47.84626,-54.09684
2019-10-31 15:00:00+00:00,367.4513,8.8,14.72,47.84626,-54.09684
2019-10-31 15:10:00+00:00,361.4196,8.87,14.72,47.84626,-54.09684
2019-10-31 15:20:00+00:00,360.5465,8.9,14.72,47.84626,-54.09684
